Zurück zum Katalog

FENGYUN 1C DEB

AktivPO
NORAD 32419·DEBRIS·🇨🇳 China

Gestartet May 10, 1999 von Taiyuan Satellite Launch Center

Loading…

Nächste Überflüge (nächste 24 Stunden)

TLE

AlterndSource: Space-Track

Epoche: Sep 8, 2026, 12:12 UTC

1 32419U 99025DAF 26251.50865289  .00000684  00000-0  28190-3 0  9994
2 32419  97.9477 161.0991 0280905 326.8586  31.5258 14.10547935673732

Verfolge FENGYUN 1C DEB in Echtzeit mit AllMySat

Download on the App Store